Year,Month,Day,Hour,Minute,Value (Times are PST for temperature in C)
2010,05,08,00,00,4.00
2010,05,08,00,01,4.00
2010,05,08,00,02,3.90
2010,05,08,00,03,3.90
2010,05,08,00,04,3.90
2010,05,08,00,05,3.90
2010,05,08,00,06,3.90
2010,05,08,00,07,3.90
2010,05,08,00,08,3.90
2010,05,08,00,09,3.90
2010,05,08,00,10,3.90
2010,05,08,00,11,3.80
2010,05,08,00,12,3.80
2010,05,08,00,13,3.80
2010,05,08,00,14,3.80
2010,05,08,00,15,3.80
2010,05,08,00,16,3.80
2010,05,08,00,17,3.80
2010,05,08,00,18,3.80
2010,05,08,00,19,3.80
2010,05,08,00,20,3.80
2010,05,08,00,21,3.70
2010,05,08,00,22,3.70
2010,05,08,00,23,3.70
2010,05,08,00,24,3.70
2010,05,08,00,25,3.70
2010,05,08,00,26,3.70
2010,05,08,00,27,3.70
2010,05,08,00,28,3.70
2010,05,08,00,29,3.70
2010,05,08,00,30,3.70
2010,05,08,00,31,3.70
2010,05,08,00,32,3.70
2010,05,08,00,33,3.70
2010,05,08,00,34,3.70
2010,05,08,00,35,3.70
2010,05,08,00,36,3.70
2010,05,08,00,37,3.70
2010,05,08,00,38,3.70
2010,05,08,00,39,3.70
2010,05,08,00,40,3.70
2010,05,08,00,41,3.70
2010,05,08,00,42,3.60
2010,05,08,00,43,3.60
2010,05,08,00,44,3.60
2010,05,08,00,45,3.60
2010,05,08,00,46,3.60
2010,05,08,00,47,3.60
2010,05,08,00,48,3.60
2010,05,08,00,49,3.50
2010,05,08,00,50,3.50
2010,05,08,00,51,3.50
2010,05,08,00,52,3.50
2010,05,08,00,53,3.50
2010,05,08,00,54,3.50
2010,05,08,00,55,3.40
2010,05,08,00,56,3.40
2010,05,08,00,57,3.40
2010,05,08,00,58,3.40
2010,05,08,00,59,3.40
2010,05,08,01,00,3.40
2010,05,08,01,01,3.40
2010,05,08,01,02,3.40
2010,05,08,01,03,3.40
2010,05,08,01,04,3.50
2010,05,08,01,05,3.50
2010,05,08,01,06,3.50
2010,05,08,01,07,3.50
2010,05,08,01,08,3.50
2010,05,08,01,09,3.50
2010,05,08,01,10,3.50
2010,05,08,01,11,3.60
2010,05,08,01,12,3.60
2010,05,08,01,13,3.60
2010,05,08,01,14,3.60
2010,05,08,01,15,3.60
2010,05,08,01,16,3.50
2010,05,08,01,17,3.50
2010,05,08,01,18,3.50
2010,05,08,01,19,3.50
2010,05,08,01,20,3.50
2010,05,08,01,21,3.50
2010,05,08,01,22,3.50
2010,05,08,01,23,3.50
2010,05,08,01,24,3.50
2010,05,08,01,25,3.50
2010,05,08,01,26,3.40
2010,05,08,01,27,3.40
2010,05,08,01,28,3.40
2010,05,08,01,29,3.40
2010,05,08,01,30,3.30
2010,05,08,01,31,3.30
2010,05,08,01,32,3.30
2010,05,08,01,33,3.30
2010,05,08,01,34,3.30
2010,05,08,01,35,3.30
2010,05,08,01,36,3.20
2010,05,08,01,37,3.20
2010,05,08,01,38,3.20
2010,05,08,01,39,3.20
2010,05,08,01,40,3.20
2010,05,08,01,41,3.20
2010,05,08,01,42,3.20
2010,05,08,01,43,3.20
2010,05,08,01,44,3.20
2010,05,08,01,45,3.20
2010,05,08,01,46,3.20
2010,05,08,01,47,3.20
2010,05,08,01,48,3.20
2010,05,08,01,49,3.20
2010,05,08,01,50,3.20
2010,05,08,01,51,3.20
2010,05,08,01,52,3.10
2010,05,08,01,53,3.10
2010,05,08,01,54,3.10
2010,05,08,01,55,3.10
2010,05,08,01,56,3.10
2010,05,08,01,57,3.10
2010,05,08,01,58,3.10
2010,05,08,01,59,3.10
2010,05,08,02,00,3.10
2010,05,08,02,01,3.10
2010,05,08,02,02,3.10
2010,05,08,02,03,3.10
2010,05,08,02,04,3.10
2010,05,08,02,05,3.10
2010,05,08,02,06,3.00
2010,05,08,02,07,3.00
2010,05,08,02,08,3.00
2010,05,08,02,09,3.00
2010,05,08,02,10,3.00
2010,05,08,02,11,2.90
2010,05,08,02,12,2.90
2010,05,08,02,13,2.90
2010,05,08,02,14,2.90
2010,05,08,02,15,2.90
2010,05,08,02,16,2.90
2010,05,08,02,17,2.90
2010,05,08,02,18,2.90
2010,05,08,02,19,2.80
2010,05,08,02,20,2.80
2010,05,08,02,21,2.80
2010,05,08,02,22,2.80
2010,05,08,02,23,2.80
2010,05,08,02,24,2.80
2010,05,08,02,25,2.80
2010,05,08,02,26,2.80
2010,05,08,02,27,2.70
2010,05,08,02,28,2.70
2010,05,08,02,29,2.70
2010,05,08,02,30,2.70
2010,05,08,02,31,2.70
2010,05,08,02,32,2.70
2010,05,08,02,33,2.70
2010,05,08,02,34,2.70
2010,05,08,02,35,2.70
2010,05,08,02,36,2.70
2010,05,08,02,37,2.70
2010,05,08,02,38,2.70
2010,05,08,02,39,2.70
2010,05,08,02,40,2.70
2010,05,08,02,41,2.70
2010,05,08,02,42,2.70
2010,05,08,02,43,2.70
2010,05,08,02,44,2.70
2010,05,08,02,45,2.70
2010,05,08,02,46,2.70
2010,05,08,02,47,2.70
2010,05,08,02,48,2.70
2010,05,08,02,49,2.70
2010,05,08,02,50,2.60
2010,05,08,02,51,2.70
2010,05,08,02,52,2.60
2010,05,08,02,53,2.60
2010,05,08,02,54,2.60
2010,05,08,02,55,2.60
2010,05,08,02,56,2.60
2010,05,08,02,57,2.60
2010,05,08,02,58,2.60
2010,05,08,02,59,2.60
2010,05,08,03,00,2.60
2010,05,08,03,01,2.60
2010,05,08,03,02,2.60
2010,05,08,03,03,2.60
2010,05,08,03,04,2.60
2010,05,08,03,05,2.60
2010,05,08,03,06,2.60
2010,05,08,03,07,2.60
2010,05,08,03,08,2.60
2010,05,08,03,09,2.60
2010,05,08,03,10,2.60
2010,05,08,03,11,2.60
2010,05,08,03,12,2.60
2010,05,08,03,13,2.60
2010,05,08,03,14,2.60
2010,05,08,03,15,2.50
2010,05,08,03,16,2.50
2010,05,08,03,17,2.50
2010,05,08,03,18,2.40
2010,05,08,03,19,2.40
2010,05,08,03,20,2.40
2010,05,08,03,21,2.40
2010,05,08,03,22,2.40
2010,05,08,03,23,2.30
2010,05,08,03,24,2.30
2010,05,08,03,25,2.30
2010,05,08,03,26,2.30
2010,05,08,03,27,2.30
2010,05,08,03,28,2.30
2010,05,08,03,29,2.30
2010,05,08,03,30,2.30
2010,05,08,03,31,2.30
2010,05,08,03,32,2.30
2010,05,08,03,33,2.30
2010,05,08,03,34,2.20
2010,05,08,03,35,2.20
2010,05,08,03,36,2.20
2010,05,08,03,37,2.20
2010,05,08,03,38,2.20
2010,05,08,03,39,2.20
2010,05,08,03,40,2.20
2010,05,08,03,41,2.20
2010,05,08,03,42,2.20
2010,05,08,03,43,2.20
2010,05,08,03,44,2.20
2010,05,08,03,45,2.10
2010,05,08,03,46,2.10
2010,05,08,03,47,2.10
2010,05,08,03,48,2.10
2010,05,08,03,49,2.10
2010,05,08,03,50,2.10
2010,05,08,03,51,2.10
2010,05,08,03,52,2.10
2010,05,08,03,53,2.10
2010,05,08,03,54,2.10
2010,05,08,03,55,2.10
2010,05,08,03,56,2.10
2010,05,08,03,57,2.10
2010,05,08,03,58,2.10
2010,05,08,03,59,2.00
2010,05,08,04,00,2.00
2010,05,08,04,01,2.00
2010,05,08,04,02,2.00
2010,05,08,04,03,2.00
2010,05,08,04,04,2.00
2010,05,08,04,05,2.00
2010,05,08,04,06,2.00
2010,05,08,04,07,2.00
2010,05,08,04,08,2.00
2010,05,08,04,09,2.00
2010,05,08,04,10,1.90
2010,05,08,04,11,1.90
2010,05,08,04,12,1.90
2010,05,08,04,13,1.90
2010,05,08,04,14,1.90
2010,05,08,04,15,1.90
2010,05,08,04,16,1.90
2010,05,08,04,17,1.90
2010,05,08,04,18,1.90
2010,05,08,04,19,1.90
2010,05,08,04,20,1.90
2010,05,08,04,21,1.80
2010,05,08,04,22,1.80
2010,05,08,04,23,1.80
2010,05,08,04,24,1.80
2010,05,08,04,25,1.80
2010,05,08,04,26,1.80
2010,05,08,04,27,1.80
2010,05,08,04,28,1.80
2010,05,08,04,29,1.80
2010,05,08,04,30,1.80
2010,05,08,04,31,1.80
2010,05,08,04,32,1.70
2010,05,08,04,33,1.70
2010,05,08,04,34,1.70
2010,05,08,04,35,1.70
2010,05,08,04,36,1.70
2010,05,08,04,37,1.70
2010,05,08,04,38,1.70
2010,05,08,04,39,1.70
2010,05,08,04,40,1.70
2010,05,08,04,41,1.70
2010,05,08,04,42,1.70
2010,05,08,04,43,1.70
2010,05,08,04,44,1.70
2010,05,08,04,45,1.70
2010,05,08,04,46,1.70
2010,05,08,04,47,1.60
2010,05,08,04,48,1.60
2010,05,08,04,49,1.60
2010,05,08,04,50,1.60
2010,05,08,04,51,1.60
2010,05,08,04,52,1.60
2010,05,08,04,53,1.60
2010,05,08,04,54,1.60
2010,05,08,04,55,1.60
2010,05,08,04,56,1.50
2010,05,08,04,57,1.50
2010,05,08,04,58,1.50
2010,05,08,04,59,1.50
2010,05,08,05,00,1.50
2010,05,08,05,01,1.40
2010,05,08,05,02,1.40
2010,05,08,05,03,1.40
2010,05,08,05,04,1.40
2010,05,08,05,05,1.40
2010,05,08,05,06,1.30
2010,05,08,05,07,1.30
2010,05,08,05,08,1.30
2010,05,08,05,09,1.30
2010,05,08,05,10,1.30
2010,05,08,05,11,1.30
2010,05,08,05,12,1.30
2010,05,08,05,13,1.30
2010,05,08,05,14,1.30
2010,05,08,05,15,1.30
2010,05,08,05,16,1.30
2010,05,08,05,17,1.30
2010,05,08,05,18,1.30
2010,05,08,05,19,1.30
2010,05,08,05,20,1.30
2010,05,08,05,21,1.30
2010,05,08,05,22,1.30
2010,05,08,05,23,1.30
2010,05,08,05,24,1.30
2010,05,08,05,25,1.30
2010,05,08,05,26,1.30
2010,05,08,05,27,1.30
2010,05,08,05,28,1.30
2010,05,08,05,29,1.30
2010,05,08,05,30,1.30
2010,05,08,05,31,1.30
2010,05,08,05,32,1.30
2010,05,08,05,33,1.30
2010,05,08,05,34,1.30
2010,05,08,05,35,1.30
2010,05,08,05,36,1.30
2010,05,08,05,37,1.30
2010,05,08,05,38,1.20
2010,05,08,05,39,1.20
2010,05,08,05,40,1.20
2010,05,08,05,41,1.20
2010,05,08,05,42,1.20
2010,05,08,05,43,1.20
2010,05,08,05,44,1.20
2010,05,08,05,45,1.20
2010,05,08,05,46,1.20
2010,05,08,05,47,1.20
2010,05,08,05,48,1.20
2010,05,08,05,49,1.20
2010,05,08,05,50,1.10
2010,05,08,05,51,1.10
2010,05,08,05,52,1.10
2010,05,08,05,53,1.10
2010,05,08,05,54,1.10
2010,05,08,05,55,1.10
2010,05,08,05,56,1.10
2010,05,08,05,57,1.00
2010,05,08,05,58,1.00
2010,05,08,05,59,1.00
2010,05,08,06,00,1.00
2010,05,08,06,01,1.00
2010,05,08,06,02,1.00
2010,05,08,06,03,1.00
2010,05,08,06,04,1.00
2010,05,08,06,05,1.00
2010,05,08,06,06,1.00
2010,05,08,06,07,1.00
2010,05,08,06,08,1.00
2010,05,08,06,09,1.00
2010,05,08,06,10,1.00
2010,05,08,06,11,1.00
2010,05,08,06,12,1.00
2010,05,08,06,13,1.00
2010,05,08,06,14,1.00
2010,05,08,06,15,1.00
2010,05,08,06,16,1.00
2010,05,08,06,17,1.00
2010,05,08,06,18,1.00
2010,05,08,06,19,1.00
2010,05,08,06,20,1.00
2010,05,08,06,21,1.00
2010,05,08,06,22,1.00
2010,05,08,06,23,1.00
2010,05,08,06,24,1.00
2010,05,08,06,25,1.00
2010,05,08,06,26,1.10
2010,05,08,06,27,1.10
2010,05,08,06,28,1.10
2010,05,08,06,29,1.10
2010,05,08,06,30,1.10
2010,05,08,06,31,1.00
2010,05,08,06,32,1.00
2010,05,08,06,33,1.00
2010,05,08,06,34,1.00
2010,05,08,06,35,1.00
2010,05,08,06,36,0.90
2010,05,08,06,37,0.90
2010,05,08,06,38,0.90
2010,05,08,06,39,0.90
2010,05,08,06,40,0.90
2010,05,08,06,41,0.90
2010,05,08,06,42,0.90
2010,05,08,06,43,0.90
2010,05,08,06,44,0.90
2010,05,08,06,45,0.90
2010,05,08,06,46,0.90
2010,05,08,06,47,0.90
2010,05,08,06,48,0.90
2010,05,08,06,49,0.90
2010,05,08,06,50,0.90
2010,05,08,06,51,0.90
2010,05,08,06,52,0.90
2010,05,08,06,53,0.90
2010,05,08,06,54,0.90
2010,05,08,06,55,0.90
2010,05,08,06,56,0.90
2010,05,08,06,57,0.90
2010,05,08,06,58,0.90
2010,05,08,06,59,0.90
2010,05,08,07,00,0.90
2010,05,08,07,01,0.90
2010,05,08,07,02,1.00
2010,05,08,07,03,1.00
2010,05,08,07,04,1.00
2010,05,08,07,05,1.00
2010,05,08,07,06,1.10
2010,05,08,07,07,1.10
2010,05,08,07,08,1.10
2010,05,08,07,09,1.10
2010,05,08,07,10,1.20
2010,05,08,07,11,1.20
2010,05,08,07,12,1.30
2010,05,08,07,13,1.30
2010,05,08,07,14,1.30
2010,05,08,07,15,1.30
2010,05,08,07,16,1.30
2010,05,08,07,17,1.30
2010,05,08,07,18,1.40
2010,05,08,07,19,1.40
2010,05,08,07,20,1.50
2010,05,08,07,21,1.50
2010,05,08,07,22,1.60
2010,05,08,07,23,1.70
2010,05,08,07,24,1.80
2010,05,08,07,25,1.80
2010,05,08,07,26,1.90
2010,05,08,07,27,2.00
2010,05,08,07,28,2.10
2010,05,08,07,29,2.10
2010,05,08,07,30,2.20
2010,05,08,07,31,2.30
2010,05,08,07,32,2.30
2010,05,08,07,33,2.40
2010,05,08,07,34,2.50
2010,05,08,07,35,2.50
2010,05,08,07,36,2.60
2010,05,08,07,37,2.70
2010,05,08,07,38,2.80
2010,05,08,07,39,2.80
2010,05,08,07,40,2.90
2010,05,08,07,41,3.00
2010,05,08,07,42,3.10
2010,05,08,07,43,3.20
2010,05,08,07,44,3.30
2010,05,08,07,45,3.40
2010,05,08,07,46,3.50
2010,05,08,07,47,3.70
2010,05,08,07,48,3.80
2010,05,08,07,49,3.90
2010,05,08,07,50,4.00
2010,05,08,07,51,4.10
2010,05,08,07,52,4.20
2010,05,08,07,53,4.30
2010,05,08,07,54,4.40
2010,05,08,07,55,4.40
2010,05,08,07,56,4.50
2010,05,08,07,57,4.60
2010,05,08,07,58,4.70
2010,05,08,07,59,4.80
2010,05,08,08,00,4.90
2010,05,08,08,01,5.00
2010,05,08,08,02,5.10
2010,05,08,08,03,5.20
2010,05,08,08,04,5.30
2010,05,08,08,05,5.30
2010,05,08,08,06,5.40
2010,05,08,08,07,5.40
2010,05,08,08,08,5.50
2010,05,08,08,09,5.50
2010,05,08,08,10,5.60
2010,05,08,08,11,5.60
2010,05,08,08,12,5.60
2010,05,08,08,13,5.60
2010,05,08,08,14,5.70
2010,05,08,08,15,5.70
2010,05,08,08,16,5.80
2010,05,08,08,17,5.80
2010,05,08,08,18,5.80
2010,05,08,08,19,5.90
2010,05,08,08,20,5.90
2010,05,08,08,21,6.00
2010,05,08,08,22,6.10
2010,05,08,08,23,6.10
2010,05,08,08,24,6.20
2010,05,08,08,25,6.20
2010,05,08,08,26,6.20
2010,05,08,08,27,6.30
2010,05,08,08,28,6.40
2010,05,08,08,29,6.40
2010,05,08,08,30,6.50
2010,05,08,08,31,6.60
2010,05,08,08,32,6.60
2010,05,08,08,33,6.70
2010,05,08,08,34,6.80
2010,05,08,08,35,6.90
2010,05,08,08,36,6.90
2010,05,08,08,37,7.00
2010,05,08,08,38,7.10
2010,05,08,08,39,7.20
2010,05,08,08,40,7.20
2010,05,08,08,41,7.20
2010,05,08,08,42,7.30
2010,05,08,08,43,7.30
2010,05,08,08,44,7.40
2010,05,08,08,45,7.40
2010,05,08,08,46,7.50
2010,05,08,08,47,7.50
2010,05,08,08,48,7.60
2010,05,08,08,49,7.60
2010,05,08,08,50,7.70
2010,05,08,08,51,7.70
2010,05,08,08,52,7.70
2010,05,08,08,53,7.80
2010,05,08,08,54,7.80
2010,05,08,08,55,7.90
2010,05,08,08,56,8.00
2010,05,08,08,57,8.00
2010,05,08,08,58,8.10
2010,05,08,08,59,8.20
2010,05,08,09,00,8.30
2010,05,08,09,01,8.30
2010,05,08,09,02,8.50
2010,05,08,09,03,8.60
2010,05,08,09,04,8.70
2010,05,08,09,05,8.90
2010,05,08,09,06,9.00
2010,05,08,09,07,9.10
2010,05,08,09,08,9.10
2010,05,08,09,09,9.20
2010,05,08,09,10,9.20
2010,05,08,09,11,9.30
2010,05,08,09,12,9.30
2010,05,08,09,13,9.40
2010,05,08,09,14,9.40
2010,05,08,09,15,9.50
2010,05,08,09,16,9.60
2010,05,08,09,17,9.70
2010,05,08,09,18,9.80
2010,05,08,09,19,9.90
2010,05,08,09,20,9.90
2010,05,08,09,21,10.00
2010,05,08,09,22,10.10
2010,05,08,09,23,10.10
2010,05,08,09,24,10.10
2010,05,08,09,25,10.10
2010,05,08,09,26,10.10
2010,05,08,09,27,10.10
2010,05,08,09,28,10.20
2010,05,08,09,29,10.20
2010,05,08,09,30,10.20
2010,05,08,09,31,10.30
2010,05,08,09,32,10.30
2010,05,08,09,33,10.40
2010,05,08,09,34,10.50
2010,05,08,09,35,10.60
2010,05,08,09,36,10.70
2010,05,08,09,37,10.80
2010,05,08,09,38,10.80
2010,05,08,09,39,10.90
2010,05,08,09,40,10.90
2010,05,08,09,41,11.00
2010,05,08,09,42,11.00
2010,05,08,09,43,11.10
2010,05,08,09,44,11.20
2010,05,08,09,45,11.30
2010,05,08,09,46,11.40
2010,05,08,09,47,11.50
2010,05,08,09,48,11.60
2010,05,08,09,49,11.70
2010,05,08,09,50,11.70
2010,05,08,09,51,11.80
2010,05,08,09,52,11.90
2010,05,08,09,53,12.00
2010,05,08,09,54,12.10
2010,05,08,09,55,12.10
2010,05,08,09,56,12.20
2010,05,08,09,57,12.20
2010,05,08,09,58,12.20
2010,05,08,09,59,12.30
2010,05,08,10,00,12.30
2010,05,08,10,01,12.40
2010,05,08,10,02,12.50
2010,05,08,10,03,12.60
2010,05,08,10,04,12.70
2010,05,08,10,05,12.80
2010,05,08,10,06,12.80
2010,05,08,10,07,12.90
2010,05,08,10,08,12.90
2010,05,08,10,09,12.90
2010,05,08,10,10,12.90
2010,05,08,10,11,12.90
2010,05,08,10,12,12.90
2010,05,08,10,13,13.00
2010,05,08,10,14,13.10
2010,05,08,10,15,13.10
2010,05,08,10,16,13.10
2010,05,08,10,17,13.10
2010,05,08,10,18,13.00
2010,05,08,10,19,12.90
2010,05,08,10,20,12.90
2010,05,08,10,21,12.90
2010,05,08,10,22,12.90
2010,05,08,10,23,12.90
2010,05,08,10,24,13.00
2010,05,08,10,25,13.10
2010,05,08,10,26,13.10
2010,05,08,10,27,13.10
2010,05,08,10,28,13.10
2010,05,08,10,29,13.20
2010,05,08,10,30,13.20
2010,05,08,10,31,13.20
2010,05,08,10,32,13.20
2010,05,08,10,33,13.20
2010,05,08,10,34,13.20
2010,05,08,10,35,13.30
2010,05,08,10,36,13.30
2010,05,08,10,37,13.40
2010,05,08,10,38,13.50
2010,05,08,10,39,13.50
2010,05,08,10,40,13.40
2010,05,08,10,41,13.40
2010,05,08,10,42,13.40
2010,05,08,10,43,13.40
2010,05,08,10,44,13.40
2010,05,08,10,45,13.40
2010,05,08,10,46,13.50
2010,05,08,10,47,13.50
2010,05,08,10,48,13.60
2010,05,08,10,49,13.70
2010,05,08,10,50,13.70
2010,05,08,10,51,13.80
2010,05,08,10,52,13.80
2010,05,08,10,53,13.80
2010,05,08,10,54,13.80
2010,05,08,10,55,13.80
2010,05,08,10,56,13.80
2010,05,08,10,57,13.80
2010,05,08,10,58,13.80
2010,05,08,10,59,13.90
2010,05,08,11,00,13.90
2010,05,08,11,01,14.00
2010,05,08,11,02,14.10
2010,05,08,11,03,14.10
2010,05,08,11,04,14.10
2010,05,08,11,05,14.20
2010,05,08,11,06,14.20
2010,05,08,11,07,14.20
2010,05,08,11,08,14.20
2010,05,08,11,09,14.20
2010,05,08,11,10,14.10
2010,05,08,11,11,14.10
2010,05,08,11,12,14.00
2010,05,08,11,13,14.00
2010,05,08,11,14,14.00
2010,05,08,11,15,13.90
2010,05,08,11,16,13.90
2010,05,08,11,17,14.00
2010,05,08,11,18,14.00
2010,05,08,11,19,14.20
2010,05,08,11,20,14.30
2010,05,08,11,21,14.40
2010,05,08,11,22,14.50
2010,05,08,11,23,14.60
2010,05,08,11,24,14.70
2010,05,08,11,25,14.90
2010,05,08,11,26,15.00
2010,05,08,11,27,15.00
2010,05,08,11,28,15.00
2010,05,08,11,29,15.20
2010,05,08,11,30,15.20
2010,05,08,11,31,15.30
2010,05,08,11,32,15.30
2010,05,08,11,33,15.20
2010,05,08,11,34,15.00
2010,05,08,11,35,15.00
2010,05,08,11,36,15.00
2010,05,08,11,37,15.00
2010,05,08,11,38,15.10
2010,05,08,11,39,15.20
2010,05,08,11,40,15.30
2010,05,08,11,41,15.50
2010,05,08,11,42,15.60
2010,05,08,11,43,15.70
2010,05,08,11,44,15.70
2010,05,08,11,45,15.80
2010,05,08,11,46,15.80
2010,05,08,11,47,15.70
2010,05,08,11,48,15.50
2010,05,08,11,49,15.40
2010,05,08,11,50,15.30
2010,05,08,11,51,15.30
2010,05,08,11,52,15.40
2010,05,08,11,53,15.60
2010,05,08,11,54,15.80
2010,05,08,11,55,16.00
2010,05,08,11,56,16.10
2010,05,08,11,57,16.20
2010,05,08,11,58,16.30
2010,05,08,11,59,16.30
2010,05,08,12,00,16.40
2010,05,08,12,01,16.50
2010,05,08,12,02,16.50
2010,05,08,12,03,16.60
2010,05,08,12,04,16.70
2010,05,08,12,05,16.70
2010,05,08,12,06,16.70
2010,05,08,12,07,16.70
2010,05,08,12,08,16.70
2010,05,08,12,09,16.60
2010,05,08,12,10,16.50
2010,05,08,12,11,16.40
2010,05,08,12,12,16.30
2010,05,08,12,13,16.20
2010,05,08,12,14,16.20
2010,05,08,12,15,16.10
2010,05,08,12,16,16.10
2010,05,08,12,17,16.20
2010,05,08,12,18,16.20
2010,05,08,12,19,16.20
2010,05,08,12,20,16.20
2010,05,08,12,21,16.10
2010,05,08,12,22,16.10
2010,05,08,12,23,16.20
2010,05,08,12,24,16.20
2010,05,08,12,25,16.20
2010,05,08,12,26,16.20
2010,05,08,12,27,16.30
2010,05,08,12,28,16.40
2010,05,08,12,29,16.50
2010,05,08,12,30,16.50
2010,05,08,12,31,16.60
2010,05,08,12,32,16.60
2010,05,08,12,33,16.60
2010,05,08,12,34,16.60
2010,05,08,12,35,16.60
2010,05,08,12,36,16.50
2010,05,08,12,37,16.40
2010,05,08,12,38,16.40
2010,05,08,12,39,16.40
2010,05,08,12,40,16.50
2010,05,08,12,41,16.70
2010,05,08,12,42,16.90
2010,05,08,12,43,17.00
2010,05,08,12,44,17.20
2010,05,08,12,45,17.40
2010,05,08,12,46,17.50
2010,05,08,12,47,17.60
2010,05,08,12,48,17.70
2010,05,08,12,49,17.80
2010,05,08,12,50,17.80
2010,05,08,12,51,17.80
2010,05,08,12,52,17.70
2010,05,08,12,53,17.50
2010,05,08,12,54,17.30
2010,05,08,12,55,17.30
2010,05,08,12,56,17.30
2010,05,08,12,57,17.30
2010,05,08,12,58,17.40
2010,05,08,12,59,17.40
2010,05,08,13,00,17.50
2010,05,08,13,01,17.60
2010,05,08,13,02,17.60
2010,05,08,13,03,17.60
2010,05,08,13,04,17.60
2010,05,08,13,05,17.60
2010,05,08,13,06,17.70
2010,05,08,13,07,17.80
2010,05,08,13,08,18.00
2010,05,08,13,09,18.10
2010,05,08,13,10,18.20
2010,05,08,13,11,18.20
2010,05,08,13,12,18.10
2010,05,08,13,13,18.10
2010,05,08,13,14,18.10
2010,05,08,13,15,18.00
2010,05,08,13,16,17.90
2010,05,08,13,17,17.80
2010,05,08,13,18,17.60
2010,05,08,13,19,17.50
2010,05,08,13,20,17.40
2010,05,08,13,21,17.30
2010,05,08,13,22,17.30
2010,05,08,13,23,17.20
2010,05,08,13,24,17.10
2010,05,08,13,25,17.00
2010,05,08,13,26,16.90
2010,05,08,13,27,16.80
2010,05,08,13,28,16.70
2010,05,08,13,29,16.70
2010,05,08,13,30,16.80
2010,05,08,13,31,16.80
2010,05,08,13,32,16.70
2010,05,08,13,33,16.60
2010,05,08,13,34,16.50
2010,05,08,13,35,16.50
2010,05,08,13,36,16.50
2010,05,08,13,37,16.60
2010,05,08,13,38,16.70
2010,05,08,13,39,16.80
2010,05,08,13,40,16.90
2010,05,08,13,41,16.90
2010,05,08,13,42,17.00
2010,05,08,13,43,16.90
2010,05,08,13,44,16.90
2010,05,08,13,45,16.80
2010,05,08,13,46,16.70
2010,05,08,13,47,16.40
2010,05,08,13,48,16.30
2010,05,08,13,49,16.20
2010,05,08,13,50,16.10
2010,05,08,13,51,16.10
2010,05,08,13,52,16.00
2010,05,08,13,53,16.00
2010,05,08,13,54,15.90
2010,05,08,13,55,15.80
2010,05,08,13,56,15.80
2010,05,08,13,57,15.90
2010,05,08,13,58,15.90
2010,05,08,13,59,15.90
2010,05,08,14,00,15.90
2010,05,08,14,01,16.00
2010,05,08,14,02,16.20
2010,05,08,14,03,16.30
2010,05,08,14,04,16.40
2010,05,08,14,05,16.50
2010,05,08,14,06,16.60
2010,05,08,14,07,16.70
2010,05,08,14,08,16.80
2010,05,08,14,09,16.80
2010,05,08,14,10,16.90
2010,05,08,14,11,16.90
2010,05,08,14,12,16.90
2010,05,08,14,13,16.70
2010,05,08,14,14,16.60
2010,05,08,14,15,16.50
2010,05,08,14,16,16.30
2010,05,08,14,17,16.00
2010,05,08,14,18,15.70
2010,05,08,14,19,15.40
2010,05,08,14,20,15.10
2010,05,08,14,21,15.00
2010,05,08,14,22,14.60
2010,05,08,14,23,14.20
2010,05,08,14,24,13.80
2010,05,08,14,25,13.40
2010,05,08,14,26,13.10
2010,05,08,14,27,12.70
2010,05,08,14,28,12.30
2010,05,08,14,29,12.00
2010,05,08,14,30,11.70
2010,05,08,14,31,11.40
2010,05,08,14,32,11.20
2010,05,08,14,33,11.00
2010,05,08,14,34,10.80
2010,05,08,14,35,10.50
2010,05,08,14,36,10.30
2010,05,08,14,37,10.10
2010,05,08,14,38,10.00
2010,05,08,14,39,10.00
2010,05,08,14,40,10.00
2010,05,08,14,41,10.00
2010,05,08,14,42,10.00
2010,05,08,14,43,10.00
2010,05,08,14,44,10.10
2010,05,08,14,45,10.10
2010,05,08,14,46,10.20
2010,05,08,14,47,10.20
2010,05,08,14,48,10.30
2010,05,08,14,49,10.40
2010,05,08,14,50,10.50
2010,05,08,14,51,10.50
2010,05,08,14,52,10.50
2010,05,08,14,53,10.60
2010,05,08,14,54,10.80
2010,05,08,14,55,10.90
2010,05,08,14,56,11.10
2010,05,08,14,57,11.10
2010,05,08,14,58,11.20
2010,05,08,14,59,11.20
2010,05,08,15,00,11.30
2010,05,08,15,01,11.40
2010,05,08,15,02,11.40
2010,05,08,15,03,11.50
2010,05,08,15,04,11.60
2010,05,08,15,05,11.70
2010,05,08,15,06,11.70
2010,05,08,15,07,11.70
2010,05,08,15,08,11.60
2010,05,08,15,09,11.60
2010,05,08,15,10,11.50
2010,05,08,15,11,11.40
2010,05,08,15,12,11.40
2010,05,08,15,13,11.40
2010,05,08,15,14,11.40
2010,05,08,15,15,11.40
2010,05,08,15,16,11.30
2010,05,08,15,17,11.30
2010,05,08,15,18,11.30
2010,05,08,15,19,11.30
2010,05,08,15,20,11.30
2010,05,08,15,21,11.30
2010,05,08,15,22,11.30
2010,05,08,15,23,11.30
2010,05,08,15,24,11.30
2010,05,08,15,25,11.30
2010,05,08,15,26,11.30
2010,05,08,15,27,11.30
2010,05,08,15,28,11.30
2010,05,08,15,29,11.30
2010,05,08,15,30,11.30
2010,05,08,15,31,11.30
2010,05,08,15,32,11.20
2010,05,08,15,33,11.20
2010,05,08,15,34,11.20
2010,05,08,15,35,11.20
2010,05,08,15,36,11.20
2010,05,08,15,37,11.20
2010,05,08,15,38,11.20
2010,05,08,15,39,11.20
2010,05,08,15,40,11.20
2010,05,08,15,41,11.20
2010,05,08,15,42,11.20
2010,05,08,15,43,11.20
2010,05,08,15,44,11.20
2010,05,08,15,45,11.20
2010,05,08,15,46,11.20
2010,05,08,15,47,11.20
2010,05,08,15,48,11.20
2010,05,08,15,49,11.20
2010,05,08,15,50,11.20
2010,05,08,15,51,11.20
2010,05,08,15,52,11.20
2010,05,08,15,53,11.30
2010,05,08,15,54,11.20
2010,05,08,15,55,11.20
2010,05,08,15,56,11.20
2010,05,08,15,57,11.20
2010,05,08,15,58,11.20
2010,05,08,15,59,11.20
2010,05,08,16,00,11.30
2010,05,08,16,01,11.30
2010,05,08,16,02,11.30
2010,05,08,16,03,11.40
2010,05,08,16,04,11.40
2010,05,08,16,05,11.50
2010,05,08,16,06,11.60
2010,05,08,16,07,11.60
2010,05,08,16,08,11.70
2010,05,08,16,09,11.70
2010,05,08,16,10,11.80
2010,05,08,16,11,11.80
2010,05,08,16,12,11.90
2010,05,08,16,13,12.00
2010,05,08,16,14,12.10
2010,05,08,16,15,12.20
2010,05,08,16,16,12.30
2010,05,08,16,17,12.40
2010,05,08,16,18,12.50
2010,05,08,16,19,12.60
2010,05,08,16,20,12.70
2010,05,08,16,21,12.70
2010,05,08,16,22,12.80
2010,05,08,16,23,12.90
2010,05,08,16,24,12.90
2010,05,08,16,25,13.00
2010,05,08,16,26,13.10
2010,05,08,16,27,13.10
2010,05,08,16,28,13.10
2010,05,08,16,29,13.10
2010,05,08,16,30,13.10
2010,05,08,16,31,13.20
2010,05,08,16,32,13.20
2010,05,08,16,33,13.30
2010,05,08,16,34,13.30
2010,05,08,16,35,13.40
2010,05,08,16,36,13.50
2010,05,08,16,37,13.50
2010,05,08,16,38,13.60
2010,05,08,16,39,13.70
2010,05,08,16,40,13.80
2010,05,08,16,41,13.90
2010,05,08,16,42,14.00
2010,05,08,16,43,14.10
2010,05,08,16,44,14.20
2010,05,08,16,45,14.30
2010,05,08,16,46,14.30
2010,05,08,16,47,14.40
2010,05,08,16,48,14.50
2010,05,08,16,49,14.50
2010,05,08,16,50,14.60
2010,05,08,16,51,14.60
2010,05,08,16,52,14.60
2010,05,08,16,53,14.60
2010,05,08,16,54,14.50
2010,05,08,16,55,14.40
2010,05,08,16,56,14.30
2010,05,08,16,57,14.30
2010,05,08,16,58,14.40
2010,05,08,16,59,14.30
2010,05,08,17,00,14.30
2010,05,08,17,01,14.30
2010,05,08,17,02,14.20
2010,05,08,17,03,14.20
2010,05,08,17,04,14.20
2010,05,08,17,05,14.20
2010,05,08,17,06,14.30
2010,05,08,17,07,14.40
2010,05,08,17,08,14.40
2010,05,08,17,09,14.40
2010,05,08,17,10,14.40
2010,05,08,17,11,14.40
2010,05,08,17,12,14.40
2010,05,08,17,13,14.40
2010,05,08,17,14,14.50
2010,05,08,17,15,14.50
2010,05,08,17,16,14.50
2010,05,08,17,17,14.60
2010,05,08,17,18,14.70
2010,05,08,17,19,14.80
2010,05,08,17,20,14.80
2010,05,08,17,21,14.80
2010,05,08,17,22,15.00
2010,05,08,17,23,15.00
2010,05,08,17,24,15.00
2010,05,08,17,25,15.00
2010,05,08,17,26,15.00
2010,05,08,17,27,14.90
2010,05,08,17,28,14.90
2010,05,08,17,29,14.90
2010,05,08,17,30,14.90
2010,05,08,17,31,14.80
2010,05,08,17,32,14.60
2010,05,08,17,33,14.40
2010,05,08,17,34,14.30
2010,05,08,17,35,14.10
2010,05,08,17,36,14.00
2010,05,08,17,37,13.90
2010,05,08,17,38,13.90
2010,05,08,17,39,13.80
2010,05,08,17,40,13.80
2010,05,08,17,41,13.80
2010,05,08,17,42,13.90
2010,05,08,17,43,13.90